HST
1 20580U 90037B 24287.66313969 .00013037 00000-0 57541-3 0 9999
2 20580 28.4685 270.0884 0002664 246.4656 113.5658 15.20217340695060
ISS (ZARYA)
1 25544U 98067A 24288.38439782 -.00274092 00000-0 -49859-2 0 9991
2 25544 51.6375 85.0013 0009245 75.5296 8.7941 15.49814641477033
CXO
1 25867U 99040B 24289.50546092 .00001055 00000-0 00000-0 0 9997
2 25867 43.7893 144.2087 8763523 302.6146 0.5675 0.37807096 15016